Location: *
(51.2167°N, 10.0667°E)
Time: 13:45:04
(UTC+00:00)

Cosmos 2278 Rocket - Pass Details

Date: 12 December 2019
Orbit: 843 x 844 km, 71.0° (Epoch: 23 January)

Event Time Altitude Azimuth Distance (km) Brightness Sun altitude
Rises 16:34:56 0° 326° (NW) 3,413 5.5 -12.1°
Reaches altitude 10° 16:37:29 10° 320° (NW) 2,473 4.9 -12.5°
Maximum altitude 16:42:48 44° 251° (WSW) 1,162 3.5 -13.2°
Drops below altitude 10° 16:48:06 10° 181° (S) 2,457 4.9 -14.0°
Sets 16:50:38 0° 174° (S) 3,387 5.5 -14.4°
